Theta_e
290 293 296 299 304 309 312 316 322 323 322 324 329 329 328 328 327 325 322 322 321 320 320 319 317 315 313 316 319 318 318 311 314 317 319 318 316 315 315 314 313 313 312
288 291 293 296 300 307 311 315 320 322 322 322 324 329 329 328 327 325 323 323 323 321 319 320 318 316 314 314 319 319 319 317 319 320 319 318 317 315 315 315 314 313 313
287 289 291 293 298 304 308 312 317 321 322 321 323 325 329 328 327 326 324 323 323 322 321 319 320 318 316 314 317 319 320 320 321 321 320 319 318 317 317 316 315 313 314
286 289 289 291 295 299 304 308 313 318 320 319 322 324 328 328 328 326 325 323 323 322 322 321 321 320 317 316 314 318 320 321 321 321 320 319 319 318 317 316 315 314 314
286 287 288 289 292 296 301 305 308 314 319 318 318 324 327 326 327 325 325 324 322 323 322 322 322 322 319 316 315 314 318 320 320 321 321 320 320 319 317 316 315 314 315
284 286 287 288 290 293 297 302 306 310 316 318 318 318 325 326 325 326 325 324 322 322 323 323 323 322 320 317 316 314 312 319 320 320 320 320 319 319 317 316 315 315 315
284 285 286 286 288 290 293 298 301 307 311 316 318 317 320 324 323 324 324 323 321 322 323 322 320 319 319 317 318 317 316 313 318 320 320 320 319 319 318 317 316 316 316
282 284 285 285 286 288 290 293 295 299 303 308 315 316 316 321 322 323 322 323 322 322 322 321 318 317 317 317 318 319 318 318 316 314 319 321 319 319 318 318 319 319 319
279 282 284 284 285 287 288 290 291 294 298 304 310 314 315 315 322 322 321 322 322 322 322 322 321 320 319 318 318 319 320 319 319 318 314 314 319 320 320 319 319 319 319
278 278 282 283 283 285 286 287 288 291 293 296 300 304 306 313 316 319 319 320 321 320 322 322 322 321 321 322 321 319 319 320 321 320 320 319 318 317 318 320 321 320 319
277 278 278 282 283 283 285 286 287 288 290 293 294 296 298 301 312 315 317 319 319 320 321 321 321 321 321 322 322 322 322 321 321 321 322 321 320 320 320 319 320 321 321
277 278 278 278 282 283 283 284 286 287 288 289 290 292 294 298 301 307 312 313 316 316 316 320 321 321 321 322 322 322 323 323 323 322 321 322 322 321 320 320 320 320 321
277 277 277 278 278 281 282 283 284 285 285 286 287 288 290 291 296 298 301 311 313 313 315 315 314 317 320 321 321 322 322 322 322 322 323 322 321 321 321 321 321 320 320
277 277 277 277 277 278 281 281 282 282 282 283 284 286 287 289 290 293 295 302 310 312 312 312 314 315 316 316 318 322 322 320 321 322 322 322 322 322 322 322 321 321 320
277 276 277 276 277 277 278 279 279 279 280 280 281 283 284 285 285 287 291 294 300 304 306 310 312 313 313 313 314 316 316 319 320 320 320 321 321 322 321 321 322 322 321
276 276 276 276 276 276 277 277 279 278 278 279 280 280 281 281 283 285 288 290 293 296 299 301 305 307 308 311 312 314 314 314 315 315 318 319 320 320 320 320 321 321 320
276 276 276 276 276 276 276 276 277 277 278 278 278 279 280 280 281 283 285 288 290 291 295 295 297 298 300 302 306 309 310 310 313 313 315 315 316 317 317 318 318 319 320
276 276 276 276 276 276 276 276 276 276 276 276 277 277 279 279 279 280 283 286 288 289 289 289 290 291 292 294 296 298 302 304 305 306 308 310 312 314 315 316 316 316 316
276 276 275 276 276 276 276 276 276 275 275 276 276 276 277 278 278 278 279 283 284 285 285 286 286 286 287 289 290 292 293 296 298 299 301 303 304 306 308 308 310 312 312
275 276 275 276 276 276 276 276 276 275 275 275 275 275 276 277 277 277 278 278 281 282 282 283 284 285 285 286 287 288 290 291 293 293 294 296 298 298 301 302 303 304 305
275 275 275 276 276 276 276 275 275 275 275 275 275 275 276 276 275 276 276 276 277 278 281 281 281 282 283 284 285 285 287 288 289 290 291 292 293 294 295 296 297 298 297
275 275 275 276 276 276 276 275 275 275 275 274 274 274 274 274 274 275 275 275 276 276 276 277 279 280 281 282 282 283 284 285 286 286 287 288 290 291 292 292 292 292 293
275 275 275 275 275 275 276 275 275 274 274 273 273 273 273 273 274 274 274 274 274 275 275 275 276 276 278 280 280 281 281 282 283 284 284 285 286 287 288 289 289 290 290
275 275 275 275 275 275 275 274 274 274 273 273 273 272 272 272 273 273 273 273 274 274 274 274 274 275 275 275 277 278 279 280 281 281 282 282 283 284 284 285 286 286 287
274 274 274 274 274 274 274 273 273 273 273 272 272 272 272 272 272 272 272 273 273 273 273 274 274 274 274 274 274 275 276 277 278 279 280 280 281 281 282 282 282 283 283
273 274 274 274 274 273 273 273 272 272 272 272 272 272 271 271 271 272 272 272 272 273 273 273 273 273 273 273 273 273 274 274 274 275 275 276 277 278 279 280 280 281 281
Wind_Speed
20 16 12 8 2 7 14 15 30 33 44 21 61 60 59 54 50 49 50 47 44 40 39 36 35 34 34 33 29 26 26 32 23 29 26 19 24 23 22 21 20 18 16
24 19 16 12 5 8 9 10 21 33 35 38 31 66 59 56 52 51 51 49 47 44 40 38 36 36 35 33 33 29 27 29 24 25 26 26 22 23 21 23 22 20 18
25 22 19 16 9 5 8 7 12 23 29 39 31 47 61 59 54 52 51 50 50 46 42 40 39 38 38 36 33 34 31 30 27 21 26 25 23 23 25 24 23 21 20
25 23 22 21 15 7 4 6 11 16 17 13 39 40 62 58 55 53 53 51 51 49 44 40 40 40 40 38 38 37 34 33 32 27 25 26 24 24 26 27 28 26 23
26 24 24 23 18 12 5 4 7 13 16 17 13 38 60 55 58 55 53 52 51 51 48 44 42 41 40 39 39 39 38 36 34 34 30 29 29 30 33 32 29 25 26
26 25 25 24 21 16 9 4 2 7 14 18 13 13 47 51 45 49 52 52 49 50 51 48 45 42 41 39 37 36 41 40 40 37 37 35 33 32 30 32 30 31 31
25 23 24 25 24 20 15 8 3 4 8 15 22 19 16 45 47 48 51 48 49 49 48 45 44 42 40 39 37 35 35 40 39 41 40 40 37 34 31 30 32 30 30
25 24 22 25 25 22 18 14 10 7 10 12 15 14 19 24 37 48 48 47 46 47 46 43 41 42 42 41 39 40 39 36 37 42 39 37 34 33 31 29 27 27 28
24 24 23 23 25 23 21 18 14 10 11 13 14 17 13 13 35 41 47 47 47 48 48 46 42 41 40 41 42 41 41 39 36 34 37 39 36 34 32 32 34 34 33
22 21 21 19 20 22 21 19 16 13 11 14 16 16 18 19 27 33 39 49 46 46 47 47 45 45 42 40 41 41 44 42 39 38 38 38 38 38 38 37 35 38 38
17 17 18 18 17 18 18 17 14 13 10 11 13 13 13 16 21 25 26 38 44 41 46 46 47 48 47 43 43 45 45 38 40 40 40 40 41 41 41 40 39 40 40
15 14 15 15 16 14 15 15 14 13 13 11 10 11 11 11 14 18 21 19 26 29 27 38 46 46 48 46 44 41 39 38 40 42 44 46 46 46 45 43 42 43 43
13 11 11 13 13 14 13 14 14 14 15 16 14 13 13 12 10 10 11 19 16 19 21 19 21 33 44 49 46 44 42 39 39 42 43 45 44 43 43 44 45 45 45
12 10 10 9 9 10 12 14 12 14 16 17 17 15 15 13 11 8 4 8 23 21 18 19 18 19 21 19 38 51 50 46 47 47 44 43 39 40 43 43 45 47 50
10 8 8 8 7 6 6 10 14 14 14 15 18 16 16 17 17 14 10 5 7 14 16 21 22 20 21 22 22 22 27 46 53 49 44 43 44 43 42 43 43 45 48
9 8 5 6 6 6 5 3 6 9 11 12 12 15 13 13 12 11 8 7 6 5 7 12 16 20 21 26 26 25 26 26 29 42 45 43 43 39 42 43 45 44 44
9 7 6 5 4 5 5 5 5 5 7 7 10 10 12 12 13 11 10 7 6 5 8 7 7 9 11 14 19 24 24 27 28 29 29 34 43 37 34 36 43 48 49
10 8 6 4 3 4 5 6 7 7 7 6 6 8 9 10 10 10 9 7 6 5 9 8 7 7 6 6 8 11 15 16 18 20 23 27 31 35 37 42 42 38 38
12 9 7 5 3 1 3 5 6 7 7 8 7 6 8 7 9 8 7 7 9 8 7 6 6 6 6 6 4 4 6 8 8 10 12 15 17 22 24 27 30 35 39
13 12 9 7 4 2 2 4 6 8 8 8 7 8 11 8 5 6 6 6 5 7 7 6 5 3 3 4 5 4 4 5 5 5 5 7 7 7 10 13 15 17 20
13 14 12 10 7 4 5 6 7 8 9 8 7 4 6 7 5 5 5 5 5 5 4 3 4 3 3 2 2 3 3 4 3 3 3 4 5 5 5 4 4 5 7
14 14 14 12 9 8 7 8 9 10 10 10 9 6 5 6 5 4 5 5 4 4 3 4 4 3 2 2 2 2 2 3 2 2 2 2 3 3 4 5 5 6 7
15 15 15 13 12 10 10 10 11 11 10 10 9 9 7 5 6 5 3 3 2 1 2 1 0 1 4 3 1 1 2 2 1 2 2 2 1 2 3 4 5 5 5
14 15 15 14 13 12 11 10 10 11 11 11 11 9 8 6 5 5 4 3 2 2 1 1 1 1 1 2 1 3 2 0 0 1 1 3 2 2 3 4 4 5 5
13 13 14 15 14 13 13 13 13 15 14 14 13 11 9 9 8 7 6 5 5 4 3 2 2 2 1 2 2 3 2 1 3 3 2 1 1 2 2 3 4 4 5
8 10 12 13 14 15 15 16 16 14 14 14 14 14 12 10 9 9 8 7 6 7 6 5 4 3 3 3 3 3 3 3 2 2 2 2 2 2 3 2 2 3 3
Wind_Direction
14 10 4 15 280 245 236 212 218 224 227 236 203 204 204 207 206 206 207 208 207 207 207 208 210 208 208 202 208 209 207 210 212 202 207 202 205 200 198 199 201 203 201
13 14 13 12 359 260 244 218 213 218 246 251 222 205 207 208 210 207 208 209 207 206 206 206 209 205 206 203 204 209 205 206 208 208 198 201 202 204 203 203 202 203 206
14 12 23 15 14 302 256 227 202 210 232 245 241 198 209 209 210 211 212 211 211 210 209 208 210 206 207 207 205 209 206 205 205 205 204 200 203 202 202 206 207 206 208
14 12 21 21 17 11 288 243 207 196 201 245 215 210 208 210 210 213 213 214 214 212 214 212 214 213 211 209 209 208 207 208 209 210 212 205 203 203 207 206 205 207 211
14 14 18 23 17 17 342 273 215 201 202 240 282 202 208 209 207 209 214 214 214 214 215 218 220 221 221 217 214 210 209 207 208 212 209 207 207 206 207 207 212 212 216
16 16 17 23 19 23 19 356 227 183 195 231 235 276 195 208 217 211 216 215 215 215 216 219 223 222 222 221 223 221 215 210 210 210 213 213 215 216 213 212 211 215 219
16 17 16 24 23 25 33 39 41 166 188 206 223 270 194 184 196 205 214 218 217 216 218 218 220 220 219 220 222 225 224 222 220 218 219 220 221 220 219 217 219 221 227
11 20 17 20 25 23 35 48 58 106 141 150 191 242 263 208 200 201 204 215 221 218 218 220 219 218 217 218 219 221 223 224 224 226 229 231 232 232 231 231 229 230 232
16 13 17 16 22 22 29 38 50 70 115 129 159 183 218 220 202 212 202 205 217 222 220 221 222 223 221 219 219 220 222 224 225 228 229 232 234 238 238 235 232 232 234
12 15 8 15 18 25 24 32 40 56 80 113 127 145 154 193 217 224 228 207 207 215 224 227 227 228 227 224 224 224 226 226 224 225 225 227 230 235 238 238 239 236 235
6 8 11 5 18 22 24 28 36 51 68 92 103 118 127 128 167 201 222 220 210 203 212 216 223 227 230 231 232 231 232 230 231 231 231 232 231 232 235 236 235 237 238
0 7 11 8 7 17 22 26 31 43 53 62 74 81 84 98 129 157 176 183 199 216 199 199 210 217 227 228 228 234 235 235 235 234 235 235 234 235 235 238 240 241 242
352 0 11 10 6 6 19 22 28 36 36 39 42 48 59 66 99 129 173 188 194 191 204 218 202 202 214 226 231 226 229 231 235 237 234 236 236 240 241 241 243 246 249
345 350 6 12 20 16 12 22 30 35 33 28 28 33 30 40 47 60 61 180 202 206 215 226 229 224 222 221 223 220 221 225 232 237 238 237 238 239 238 241 243 244 246
328 338 355 6 18 36 32 29 27 36 37 32 22 20 28 24 26 27 32 42 194 199 207 218 225 230 233 232 231 231 231 220 221 228 229 233 238 241 244 243 244 245 244
308 315 333 349 8 23 33 40 30 40 26 28 35 24 20 21 22 28 26 38 66 119 183 210 217 226 229 232 237 230 240 240 231 226 222 222 227 228 236 243 249 247 251
285 292 306 328 356 23 34 40 49 42 11 13 18 21 14 14 9 18 29 37 54 70 117 132 160 176 201 212 219 225 229 233 238 238 235 233 232 226 222 222 229 236 246
261 261 272 293 338 2 19 26 29 28 22 19 11 11 8 5 3 5 21 28 74 78 94 104 108 124 145 174 186 199 211 219 231 237 237 238 238 236 237 240 240 243 244
241 241 244 249 270 327 1 9 17 16 15 8 9 1 7 6 3 359 11 32 54 75 77 85 88 102 112 115 133 155 163 180 201 222 229 235 237 240 241 241 242 241 240
227 227 227 238 258 278 328 350 356 356 356 356 1 7 358 2 0 11 25 37 24 50 59 63 74 74 79 94 101 104 117 127 136 164 171 172 188 209 224 236 243 246 246
223 220 225 236 245 268 297 320 328 334 337 339 338 356 357 338 357 5 20 35 42 16 351 30 35 45 50 63 76 87 103 110 122 145 137 146 141 147 144 168 189 199 212
225 220 221 231 243 263 283 295 305 316 322 326 324 319 318 313 324 344 6 18 24 26 30 353 340 341 359 41 57 61 71 100 119 133 128 123 142 153 154 151 144 145 152
228 226 227 231 242 257 273 290 299 304 309 315 321 320 310 308 311 319 324 323 337 358 0 9 132 300 317 321 351 61 57 76 114 124 114 99 109 129 152 161 165 166 165
230 232 237 244 250 259 270 278 287 295 299 299 309 315 304 294 294 287 285 270 265 273 283 303 296 235 213 204 279 312 312 64 77 63 92 102 114 122 129 144 154 151 162
237 240 242 249 256 257 260 266 280 288 289 290 289 291 294 284 280 277 274 262 246 235 235 236 246 245 221 200 191 186 200 267 290 300 282 183 155 150 152 145 148 152 166
250 248 253 259 260 264 272 279 281 282 283 282 281 282 285 276 269 268 269 260 240 234 230 234 230 231 227 215 202 204 222 228 221 213 221 224 228 223 224 220 208 181 187